Вернуться в каталог

STARLINK-5377

АктивенСвязьVLEO
NORAD 56141·PAYLOAD·🇺🇸 United States

Запущен Mar 29, 2023 с Cape Canaveral Space Force Station

Loading…

Ближайшие Пролёты (ближайшие 24 часа)

TLE

СвежийSource: CelesTrak SupGP

Эпоха: Sep 15, 2026, 01:24 UTC

1 56141C 23046BA  26258.05881944 -.00008542  00000+0 -30949-3 0  2580
2 56141  43.0001 157.5033 0001229 252.6991  47.9809 15.27573754    13

Отслеживайте STARLINK-5377 в реальном времени с AllMySat

Download on the App Store